Regional Weather Roundup
Issued by NWS

Home | Current Version | Previous Version | Graphics & Text | Print | Product List | Glossary On
Versions: 1 2 3 4 5 6 7 8 9 10 11 12 13 14 15 16 17 18 19 20 21 22 23 24 25 26 27 28 29 30 31 32 33 34 35 36 37 38 39 40 41 42 43 44 45 46 47 48 49 50
000
ASUS45 KABQ 220110
RWRNM
NEW MEXICO REGIONAL WEATHER ROUNDUP
NATIONAL WEATHER SERVICE ALBUQUERQUE NM
600 PM MST SAT JAN 21 2017

NOTE: "FAIR" MEANS FEW OR NO CLOUDS BELOW 12,000 FEET AGL WITH NO
       SIGNIFICANT WEATHER OR OBSTRUCTIONS TO VISION.

      THIS PRODUCT IS RELEASED AS TWO VERSIONS.  ONE VERSION NEAR
      THE TOP OF THE HOUR CONTAINING PRELIMINARY DATA FROM ALBUQUERQUE
      AND OTHER STATIONS.  A FINAL VERSION WITH ADDITIONAL DATA IS
      ISSUED ABOUT 10 MINUTES AFTER THE HOUR.

NMZ501-503-504-510>518-220200-
NORTHWEST PLATEAU/NORTHCENTRAL MOUNTAINS

CITY           SKY/WX    TMP DP  RH WIND       PRES   REMARKS
FARMINGTON     MOCLDY    36  27  69 W24G33    29.65R WCI  24
LOS ALAMOS     MOCLDY    32  19  57 CALM      29.55R
SANTA FE       MOCLDY    33  24  69 W15       29.55R WCI  23
TAOS           CLOUDY    28  18  64 SW14      29.54R WCI  17
ANGEL FIRE     LGT SNOW  23  21  90 SW5       29.51R WCI  17

$$
NMZ402-403-502-505>509-220200-
WESTCENTRAL MOUNTAINS/SOUTHWEST MOUNTAINS

CITY           SKY/WX    TMP DP  RH WIND       PRES   REMARKS
GALLUP         FAIR      29  22  75 SW13      29.75R WCI  19
GRANTS         MOCLDY    32  22  66 NW16G22   29.72R WCI  21
SILVER CITY    CLOUDY    34  25  69 W31G39    29.83R WCI  21

$$
NMZ407-409-411-412-220200-
SOUTHERN DESERTS

CITY           SKY/WX    TMP DP  RH WIND       PRES   REMARKS
DEMING         MOCLDY    42  26  53 W25G49    29.84R
LAS CRUCES     FAIR      40  28  61 W26G37    29.77R WCI  30
HOLLOMAN AFB   FAIR      43  26  52 W18       29.73R
ALAMOGORDO     FAIR      43  25  49 W14G30    29.71R
T OR C         FAIR      41  21  44 W18G28    29.72R

$$
NMZ519>523-220200-
CENTRAL VALLEYS/CENTRAL HIGHLANDS

CITY           SKY/WX    TMP DP  RH WIND       PRES   REMARKS
ALBUQUERQUE    FAIR      39  20  46 W18G29    29.63R WCI  30
DOUBLE EAGLE   PTCLDY    34  21  60 W15       29.62R WCI  24
MORIARTY ARPT  CLOUDY    35  18  49 W17G29    29.58R WCI  25
CLINES CORNERS FAIR      29  18  63 W36G46    29.51R WCI  12
BELEN          FAIR      37  24  59 W20       29.66R WCI  26
SOCORRO        FAIR      37  27  65 W28G37    29.66R WCI  25

$$
NMZ524>526-539-540-220200-
SOUTHCENTRAL MOUNTAINS

CITY           SKY/WX    TMP DP  RH WIND       PRES   REMARKS
RUIDOSO        NOT AVBL

$$
NMZ527>531-220200-
NORTHEAST HIGHLANDS/NORTHEAST PLAINS

CITY           SKY/WX    TMP DP  RH WIND       PRES   REMARKS
LAS VEGAS      FAIR      33  17  51 NW21G30   29.42R WCI  21
RATON          MOCLDY    34  19  54 N14       29.40R WCI  25
CLAYTON        CLOUDY    37  36  96 NW21G28   29.35R WCI  26

$$
NMZ532>537-220200-
EASTCENTRAL PLAINS

CITY           SKY/WX    TMP DP  RH WIND       PRES   REMARKS
TUCUMCARI      CLOUDY    49  24  37 W13       29.35R
CANNON AFB     FAIR      45  22  41 W22G33    29.39R
CLOVIS AIRPORT FAIR      45  21  39 W29G37    29.38S

$$
NMZ028-029-538-220200-
SOUTHEAST PLAINS

CITY           SKY/WX    TMP DP  RH WIND       PRES   REMARKS
ROSWELL        FAIR      41  27  57 W17       29.55R
ARTESIA        FAIR      43  34  70 W22G29    29.59R
CARLSBAD       FAIR      49  24  37 W32G45    29.58R
HOBBS          PTCLDY    45  28  53 W16       29.55R


$$



USA.gov is the U.S. government's official web portal to all federal, state and local government web resources and services.